Hattiesburg, MS

8:36 AM CDT on June 28, 2017 (GMT -0500)
Chain Municipal

Weather History for KHBG - May, 2014

Change the Weather History Date:

Monday, May 12, 2014

  Actual Average Record
Temperature  
Mean Temperature 78 °F 73 °F  
Max Temperature 87 °F 85 °F 94 °F (1962)
Min Temperature 68 °F 61 °F 42 °F (1952)
Degree Days  
Heating Degree Days 0 0  
Month to date heating degree days 6 5  
Since 1 July heating degree days 2271 1983  
Cooling Degree Days 13 8  
Month to date cooling degree days 80 81  
Year to date cooling degree days 205 221  
Growing Degree Days 29 (Base 50)    
Moisture  
Dew Point 70 °F    
Average Humidity 73    
Maximum Humidity 94    
Minimum Humidity 51    
Precipitation  
Precipitation 0.00 in 0.15 in 3.90 in (1974)
Month to date precipitation 2.54 1.92  
Year to date precipitation 25.05 23.48  
Sea Level Pressure  
Sea Level Pressure 30.06 in    
Wind  
Wind Speed 7 mph (SE)    
Max Wind Speed 20 mph    
Max Gust Speed 23 mph    
Visibility 9 miles    
Events      
T = Trace of Precipitation, MM = Missing Value Source: NWS Daily Summary

Daily Weather History Graph

Daily Weather History Graph

Search for Another Location

Airport or City:

Trip Planner

Search our weather history database for the weather conditions in past years. The results will help you decide how hot, cold, wet, or windy it might be!

Date:

Astronomy

May. 12, 2014 Rise Set
Actual Time 6:03 AM CDT 7:43 PM CDT
Civil Twilight 5:36 AM CDT 8:10 PM CDT
Nautical Twilight 5:05 AM CDT 8:42 PM CDT
Astronomical Twilight 4:31 AM CDT 9:15 PM CDT
Moon 5:49 PM CDT (5/12) 4:32 AM CDT (5/12)
Length of Visible Light 14h 33m
Length of Day
13h 40m
Waxing Gibbous, 95% of the Moon is Illuminated
May 12
Waxing Gibbous
May 14
Full
May 21
Last Quarter
May 28
New
Jun 5
First Quarter

Hourly Weather History & Observations

Time (CDT) Temp. Heat Index Dew Point Humidity Pressure Visibility Wind Dir Wind Speed Gust Speed Precip Events Conditions
12:53 AM 75.0 °F - 72.0 °F 90% 30.02 in 10.0 mi SE 8.1 mph - N/A   Mostly Cloudy
1:10 AM 75.0 °F - 72.0 °F 90% 30.02 in 9.0 mi SE 8.1 mph - N/A   Partly Cloudy
1:53 AM 73.9 °F - 72.0 °F 93% 30.01 in 8.0 mi SE 5.8 mph - N/A   Scattered Clouds
2:02 AM 73.9 °F - 72.0 °F 93% 30.01 in 9.0 mi SE 5.8 mph - N/A   Mostly Cloudy
2:53 AM 73.9 °F - 72.0 °F 93% 30.01 in 9.0 mi SE 3.5 mph - N/A   Overcast
3:53 AM 73.9 °F - 72.0 °F 93% 30.01 in 9.0 mi ESE 4.6 mph - N/A   Overcast
4:53 AM 73.9 °F - 72.0 °F 93% 30.03 in 8.0 mi ESE 3.5 mph - N/A   Overcast
5:53 AM 73.0 °F - 72.0 °F 96% 30.05 in 7.0 mi East 3.5 mph - N/A   Overcast
6:46 AM 73.9 °F - 72.0 °F 93% 30.08 in 5.0 mi East 4.6 mph - N/A   Overcast
6:53 AM 73.9 °F - 72.0 °F 93% 30.07 in 5.0 mi East 4.6 mph - N/A   Mostly Cloudy
7:03 AM 73.9 °F - 72.0 °F 93% 30.08 in 6.0 mi ESE 5.8 mph - N/A   Overcast
7:14 AM 75.0 °F - 72.0 °F 90% 30.08 in 6.0 mi ESE 5.8 mph - N/A   Overcast
7:53 AM 75.9 °F - 73.0 °F 91% 30.08 in 8.0 mi ESE 6.9 mph - N/A   Overcast
8:25 AM 78.1 °F - 73.0 °F 84% 30.10 in 10.0 mi ESE 8.1 mph - N/A   Mostly Cloudy
8:32 AM 79.0 °F - 73.0 °F 82% 30.10 in 10.0 mi SE 10.4 mph - N/A   Mostly Cloudy
8:48 AM 78.8 °F - 71.6 °F 78% 30.10 in 10.0 mi SSE 12.7 mph - N/A   Mostly Cloudy
9:04 AM 80.1 °F 83.8 °F 72.0 °F 76% 30.10 in 10.0 mi SE 15.0 mph - N/A   Mostly Cloudy
9:53 AM 82.0 °F 86.7 °F 72.0 °F 71% 30.11 in 10.0 mi SSE 11.5 mph - N/A   Mostly Cloudy
10:19 AM 82.0 °F 85.9 °F 70.0 °F 67% 30.12 in 10.0 mi SSE 15.0 mph - N/A   Scattered Clouds
10:53 AM 82.9 °F 87.0 °F 70.0 °F 65% 30.11 in 10.0 mi SSE 10.4 mph - N/A   Partly Cloudy
11:53 AM 87.1 °F 91.3 °F 69.1 °F 55% 30.10 in 10.0 mi SSE 12.7 mph - N/A   Clear
12:53 PM 84.0 °F 88.4 °F 70.0 °F 63% 30.11 in 10.0 mi South 13.8 mph - N/A   Scattered Clouds
1:53 PM 84.0 °F 87.0 °F 68.0 °F 58% 30.09 in 10.0 mi SSE 13.8 mph - N/A   Partly Cloudy
2:53 PM 84.9 °F 88.8 °F 69.1 °F 59% 30.07 in 10.0 mi SSE 12.7 mph - N/A   Scattered Clouds
3:53 PM 86.0 °F 88.2 °F 66.0 °F 51% 30.05 in 10.0 mi SSE 15.0 mph 23.0 mph N/A   Partly Cloudy
4:53 PM 84.9 °F 87.6 °F 66.9 °F 55% 30.04 in 10.0 mi SSE 12.7 mph - N/A   Partly Cloudy
5:53 PM 82.9 °F 85.8 °F 68.0 °F 60% 30.02 in 10.0 mi SSE 8.1 mph - N/A   Clear
6:53 PM 81.0 °F 83.3 °F 66.9 °F 62% 30.02 in 10.0 mi SSE 6.9 mph - N/A   Clear
7:53 PM 78.1 °F - 66.9 °F 68% 30.03 in 10.0 mi South 8.1 mph - N/A   Clear
8:53 PM 75.0 °F - 66.9 °F 76% 30.04 in 10.0 mi South 4.6 mph - N/A   Clear
10:53 PM 71.1 °F - 68.0 °F 90% 30.04 in 10.0 mi Calm Calm - N/A   Clear
11:53 PM 70.0 °F - 66.9 °F 90% 30.05 in 10.0 mi Calm Calm - N/A   Clear